SCP
-0 0 -0 0 0 -0 -0 -0 0 0 0 0 0 0 0 0 -0 0 0 0 0 -0 -0 -0 -0 -0 -0 -0 -0 -0 -0 0 0 0 0 0 0 0 0 0 0 0 0
-0 0 -0 -0 -0 -0 -0 -0 0 0 0 0 0 0 0 0 0 0 0 0 0 -0 -0 -0 -0 -0 -0 -0 -0 -0 0 0 0 0 0 0 0 0 0 0 0 0 0
-0 -0 0 -0 -0 -0 -0 -0 0 0 0 0 0 0 0 0 0 0 0 0 0 0 -0 0 -0 -0 -0 -0 -0 0 0 0 0 0 0 0 0 0 0 0 0 0 0
-0 -0 -0 -0 -0 -0 -0 -0 0 0 0 0 0 0 0 0 0 0 0 0 0 0 0 -0 -0 -0 -0 0 -0 -0 -0 -0 0 0 -0 0 0 0 0 0 0 0 0
0 -0 -0 -0 -0 -0 -0 -0 -0 -0 0 0 0 0 0 0 0 0 0 0 0 0 0 -0 -0 0 0 0 0 -0 -0 -0 -0 0 0 0 0 0 0 -0 0 0 0
0 -0 -0 -0 -0 -0 -0 -0 -0 -0 0 0 0 0 0 0 0 0 0 0 0 -0 -0 -0 -0 -0 0 0 -0 -0 0 -0 -0 -0 -0 0 0 0 0 -0 -0 -0 0
0 -0 -0 -0 -0 -0 -0 -0 -0 0 0 0 0 0 0 0 0 0 0 0 -0 -0 0 -0 -0 -0 -0 -0 -0 0 0 -0 -0 0 0 0 0 -0 0 -0 -0 -0 -0
-0 -0 -0 -0 -0 -0 -0 0 0 0 0 0 0 0 0 0 0 0 0 0 -0 -0 -0 0 0 0 -0 -0 -0 -0 0 -0 0 -0 0 -0 -0 -0 0 0 -0 -0 -0
-0 0 -0 -0 -0 -0 -0 -0 -0 -0 0 0 0 0 0 0 0 0 -0 -0 -0 -0 -0 0 0 0 0 -0 -0 -0 0 0 -0 0 -0 0 0 0 -0 -0 -0 -0 -0
-0 0 0 0 -0 -0 -0 -0 -0 -0 -0 0 0 0 0 0 0 0 -0 -0 -0 0 0 0 0 0 0 0 0 -0 -0 -0 0 -0 -0 0 0 0 -0 -0 -0 -0 -0
0 0 0 0 -0 -0 -0 0 -0 -0 -0 -0 0 0 0 -0 -0 0 0 -0 -0 -0 -0 0 0 0 0 0 -0 0 -0 0 0 0 0 -0 -0 0 0 -0 0 -0 -0
0 0 0 0 0 -0 -0 0 0 0 0 0 0 0 0 -0 -0 -0 -0 -0 0 -0 -0 0 0 0 0 -0 -0 0 0 0 0 0 0 0 0 -0 0 -0 0 0 -0
0 0 0 0 0 -0 0 0 0 0 0 0 0 0 0 0 -0 -0 -0 -0 -0 -0 0 0 0 0 0 -0 -0 0 0 0 0 0 -0 -0 -0 -0 -0 0 0 0 0
-0 0 0 0 -0 -0 0 0 0 0 0 0 0 0 0 0 0 -0 -0 -0 -0 -0 -0 -0 -0 0 0 -0 -0 -0 0 0 0 -0 -0 -0 -0 -0 -0 -0 0 0 0
-0 0 0 -0 -0 -0 0 0 0 0 0 0 0 0 0 0 0 0 0 0 -0 -0 -0 -0 -0 -0 0 0 -0 0 0 0 0 0 -0 -0 -0 -0 -0 -0 -0 -0 0
0 0 -0 -0 -0 -0 -0 -0 0 0 0 0 0 0 0 0 0 0 0 0 0 0 -0 -0 -0 -0 -0 0 -0 0 0 0 0 0 0 -0 -0 -0 -0 -0 -0 -0 0
0 0 -0 -0 -0 -0 -0 -0 0 0 0 0 0 0 0 0 0 0 0 0 0 0 0 0 -0 -0 0 0 0 0 0 0 0 0 0 0 -0 0 0 -0 0 -0 0
0 0 -0 -0 -0 -0 -0 0 0 0 0 0 0 0 0 0 0 0 0 0 0 0 0 0 0 0 0 0 0 0 0 0 0 0 0 0 0 0 0 0 0 0 0
-0 0 0 -0 -0 -0 -0 0 0 0 0 0 0 0 0 0 0 0 0 0 0 0 0 0 0 0 0 0 0 0 0 0 0 0 0 0 0 0 0 0 0 0 -0
-0 -0 -0 -0 -0 -0 0 0 0 0 0 0 0 0 0 0 0 0 0 0 0 0 0 0 0 0 0 0 0 0 0 0 0 0 0 0 0 0 0 0 0 0 0
0 -0 -0 0 0 0 0 0 0 0 0 0 0 0 0 0 0 0 0 0 0 0 0 0 0 0 0 0 0 0 0 0 0 0 0 0 0 0 0 0 0 0 0
0 -0 -0 0 0 0 0 0 0 0 0 0 0 0 0 0 0 0 0 0 0 0 0 0 0 0 0 0 0 0 0 0 0 0 0 0 0 0 0 0 0 0 0
-0 -0 -0 -0 -0 0 0 0 0 0 0 0 0 0 0 0 0 0 0 0 0 0 0 0 0 0 0 0 0 0 0 0 0 0 0 0 0 0 0 0 0 0 0
0 0 0 0 0 0 0 0 0 0 0 0 0 0 0 0 0 0 0 0 0 0 0 0 0 0 0 0 0 0 0 0 0 0 0 0 0 0 0 0 0 0 0
0 0 0 0 0 0 0 0 0 0 0 0 0 0 0 0 0 0 1 1 0 0 0 0 0 0 0 0 0 0 0 0 0 0 0 0 0 0 0 0 0 0 0
0 0 0 0 0 0 0 0 0 0 0 0 0 0 0 0 0 0 1 0 0 0 0 0 0 0 0 0 0 0 0 0 0 0 0 0 0 0 0 0 0 0 0
Wind_Speed_500mb
39 33 32 32 28 26 26 26 25 22 19 18 15 14 14 12 12 13 14 16 15 18 19 20 19 17 16 13 10 9 11 12 12 13 15 15 14 15 14 15 17 18 20
43 37 35 34 30 28 27 26 22 19 18 18 17 15 14 12 13 13 14 15 20 16 17 17 18 18 16 14 14 15 16 18 16 15 15 13 11 12 15 15 16 19 21
41 40 39 34 30 29 28 24 20 18 18 17 18 17 17 16 15 14 14 14 20 19 18 19 18 19 19 19 18 17 14 13 18 18 15 13 13 11 12 13 16 18 18
40 42 39 34 31 30 27 22 18 17 17 18 18 18 19 16 16 15 15 14 20 22 19 19 20 18 17 17 16 13 10 9 17 24 21 16 13 11 10 10 12 15 18
42 43 38 35 33 30 26 22 18 18 18 19 19 19 19 18 18 17 18 19 22 23 21 21 20 18 17 15 13 11 12 15 16 19 18 18 16 13 11 10 11 14 18
43 43 38 34 33 30 26 23 18 18 19 20 20 20 19 21 22 20 21 20 22 25 26 25 22 21 20 16 13 13 17 21 18 20 18 15 11 11 12 11 12 14 16
46 43 38 34 33 31 28 23 19 18 21 22 21 20 19 23 26 23 20 21 22 24 26 26 23 22 21 19 16 14 15 17 18 18 21 17 4 9 10 14 16 15 17
45 43 38 36 35 32 27 23 18 18 23 23 21 19 23 25 25 26 23 20 21 21 24 23 21 21 21 19 16 14 10 17 14 10 14 17 8 3 9 11 12 15 16
44 41 37 37 35 31 26 22 17 18 22 24 25 28 29 28 24 21 22 21 20 20 19 19 18 19 19 18 17 13 9 8 8 14 19 17 1 2 4 10 13 16 17
44 41 37 37 35 30 27 22 18 17 23 24 27 29 30 26 23 20 20 19 19 20 19 19 17 19 19 14 11 6 7 2 5 14 24 10 6 12 5 7 9 12 16
47 43 39 36 33 31 27 24 20 19 24 26 25 26 25 24 24 24 22 21 21 21 19 18 17 19 18 11 4 3 6 5 7 11 20 5 6 10 11 11 13 12 15
50 46 41 37 34 32 29 25 23 22 24 25 23 22 20 21 22 24 25 24 22 20 19 16 13 15 12 7 4 0 3 2 6 10 15 2 5 10 9 11 16 18 17
41 46 43 39 36 32 30 28 27 25 26 27 23 26 23 20 18 21 22 22 18 15 12 15 7 6 5 3 5 4 1 3 6 11 16 7 5 6 9 8 11 15 16
37 39 43 42 39 35 33 31 28 28 28 29 25 24 24 18 13 17 21 18 18 19 21 19 15 12 9 9 10 9 7 6 5 11 15 12 3 6 9 11 11 10 13
41 38 38 45 42 38 37 35 34 28 30 29 29 26 24 21 21 17 18 15 20 17 18 20 15 18 20 12 12 8 8 7 1 7 11 9 10 4 7 11 12 12 15
44 43 41 39 41 41 40 40 37 29 28 33 32 29 26 25 21 23 21 20 20 21 17 18 18 13 20 20 15 14 12 8 6 5 5 10 8 8 5 2 8 13 17
51 47 47 41 41 42 40 42 42 33 31 35 32 33 29 30 27 23 22 21 21 24 20 20 19 20 20 25 24 23 21 18 15 14 12 6 4 3 5 5 2 5 9
57 58 53 52 50 46 44 41 46 41 39 38 37 34 35 33 34 31 29 23 22 29 29 24 22 25 26 26 29 26 26 25 25 22 22 19 13 8 6 6 6 7 6
55 57 61 62 60 56 51 49 50 47 47 43 42 41 40 39 37 36 29 24 27 28 34 26 28 25 26 25 28 29 33 33 30 32 29 29 26 19 15 13 10 10 12
59 61 61 65 64 60 61 60 59 57 55 53 49 46 46 45 40 40 36 29 31 32 37 35 36 32 32 32 36 37 38 38 36 37 36 34 32 30 24 18 14 11 12
71 71 71 71 71 71 72 70 67 66 63 61 59 55 51 50 45 43 43 37 35 39 38 41 37 38 39 40 43 45 45 42 45 47 43 38 37 35 34 28 23 19 21
79 76 74 73 73 76 76 74 76 69 69 66 63 59 57 56 53 48 47 45 45 45 46 40 42 49 46 45 43 47 40 38 39 44 45 42 41 44 45 41 37 33 30
86 83 80 76 74 72 75 81 83 81 77 72 66 62 64 63 59 56 54 52 52 54 52 41 44 45 49 41 37 25 13 10 18 28 34 38 43 49 48 47 47 44 44
83 90 87 87 84 81 83 84 84 85 83 77 70 64 64 66 65 62 63 62 66 62 56 45 48 56 58 65 64 58 57 44 22 20 22 26 19 22 29 38 38 35 37
72 87 92 90 93 91 91 92 91 89 87 82 76 73 70 71 74 70 71 69 71 68 70 63 51 46 46 50 65 65 53 58 44 30 30 24 22 21 24 23 22 23 24
47 52 66 74 81 85 88 90 92 88 86 81 74 70 62 55 52 67 76 76 78 76 71 59 70 54 64 66 74 59 67 60 54 48 35 35 30 20 18 16 18 21 26
Wind_Direction_500mb
167 162 156 150 148 146 147 138 128 119 114 106 101 89 81 85 100 115 135 155 149 155 155 157 152 144 141 140 135 116 108 100 96 105 105 110 108 97 89 97 109 118 125
156 156 152 148 148 149 145 136 127 118 118 113 106 98 87 79 74 87 102 131 142 142 156 159 149 143 137 128 119 109 102 93 92 109 117 116 112 94 96 103 107 118 129
156 154 152 148 151 149 144 136 124 121 120 112 102 94 86 82 83 94 105 115 145 140 135 146 144 139 135 126 115 108 100 94 83 88 98 112 117 97 89 103 111 116 129
157 155 151 150 152 150 147 137 129 125 112 102 94 87 83 85 88 92 100 115 144 146 139 139 142 142 131 123 116 105 88 111 97 77 73 79 85 95 98 106 115 120 124
162 156 153 154 156 153 148 143 134 119 111 106 100 94 89 92 96 98 98 109 133 144 137 135 134 132 129 132 123 113 109 100 95 70 63 63 67 83 104 124 135 140 145
165 157 156 159 158 156 153 149 133 125 117 110 102 93 94 98 99 105 103 108 123 136 138 136 134 133 138 138 112 103 108 100 71 66 54 66 84 101 114 135 150 159 156
167 159 161 161 162 161 161 147 138 128 116 108 98 90 95 104 103 100 106 111 119 130 135 138 135 132 135 130 117 106 112 109 83 54 43 31 92 135 158 158 163 158 161
169 163 164 166 168 166 161 144 142 127 118 119 104 95 99 106 112 107 107 116 121 132 137 141 140 140 141 126 115 109 124 134 114 67 32 18 6 171 169 175 170 166 161
173 168 170 171 172 171 159 153 146 134 131 129 108 101 103 103 104 113 113 117 128 134 139 140 145 147 145 121 107 101 104 97 61 23 4 349 53 108 179 175 174 174 170
176 175 175 178 178 173 165 162 160 149 146 143 122 110 105 98 95 113 118 114 119 127 137 138 143 142 147 132 110 76 39 72 67 9 354 349 179 135 139 179 184 176 175
182 181 182 186 182 179 174 173 174 165 161 156 146 125 118 108 106 112 114 111 111 118 129 139 147 143 143 140 125 26 65 92 29 356 350 37 140 142 142 154 163 176 184
185 185 189 190 188 188 184 186 186 183 179 169 164 148 143 134 123 126 125 121 117 122 131 136 139 137 142 166 219 106 55 41 353 356 13 58 145 147 151 157 161 170 180
185 190 194 195 194 196 195 197 198 194 191 180 175 175 162 155 147 152 143 147 147 145 150 156 173 202 203 196 248 255 40 43 38 28 26 44 142 138 160 165 171 172 178
182 189 198 200 201 202 201 204 207 204 200 194 191 186 185 180 169 178 181 177 181 187 190 192 201 224 232 280 260 244 262 330 43 33 19 27 57 190 177 177 180 180 183
191 186 196 203 205 207 208 208 207 208 211 205 204 207 199 204 198 191 185 199 211 213 213 220 231 234 227 248 226 242 284 322 24 34 24 24 34 60 217 220 215 200 195
201 200 196 199 206 210 216 216 211 213 212 209 208 212 211 203 197 210 213 223 225 227 234 238 237 234 233 227 233 253 271 302 283 289 5 36 44 52 57 220 224 215 213
212 210 209 205 206 213 218 219 215 218 217 211 213 212 215 212 214 219 227 232 231 229 236 247 247 241 239 237 244 252 260 271 271 276 285 312 1 29 20 11 58 199 222
224 224 219 217 218 218 220 222 223 225 224 221 220 219 223 223 224 229 233 242 238 242 238 241 252 248 252 250 249 258 266 283 269 269 266 265 269 277 283 309 280 231 215
227 229 229 226 228 227 227 225 226 232 233 231 231 231 230 231 229 231 234 243 241 246 232 245 243 251 252 257 254 259 269 270 265 264 267 263 261 268 271 278 292 251 244
231 235 238 236 236 237 235 232 230 232 237 237 236 240 241 241 243 244 243 245 243 246 237 241 245 250 255 257 259 262 261 263 261 261 267 257 257 259 266 263 266 249 237
236 238 239 240 239 239 239 238 239 241 243 242 242 243 241 242 246 247 248 243 247 247 247 249 249 241 252 259 260 260 257 259 264 264 264 241 247 249 253 259 258 253 242
243 244 242 242 243 242 244 246 245 250 251 251 253 254 252 250 247 252 249 247 245 250 248 253 262 256 243 251 253 258 274 275 266 255 255 252 247 246 246 248 250 250 247
247 249 251 251 248 248 250 248 247 248 251 252 255 258 257 254 255 257 254 252 252 253 251 257 270 269 265 254 262 261 277 265 290 256 249 253 257 255 245 246 247 250 254
252 250 250 251 255 255 252 251 254 258 257 262 266 269 270 264 262 265 262 257 255 258 259 258 268 263 264 262 248 246 246 256 271 283 261 256 260 268 251 245 255 258 260
267 261 258 257 255 255 255 254 251 254 256 258 261 264 268 266 263 262 261 258 257 255 260 269 282 266 275 280 262 237 248 247 241 251 274 263 264 255 243 245 249 249 252
276 272 268 267 265 261 256 253 251 249 247 249 251 255 261 271 277 267 264 263 262 260 260 281 269 280 279 273 275 247 239 238 232 239 251 274 260 229 235 233 243 261 272
Wind_Speed_850mb
39 33 32 32 28 26 26 26 25 22 19 18 15 14 14 12 12 13 14 16 15 18 19 20 19 17 16 13 10 9 11 12 12 13 15 15 14 15 14 15 17 18 20
43 37 35 34 30 28 27 26 22 19 18 18 17 15 14 12 13 13 14 15 20 16 17 17 18 18 16 14 14 15 16 18 16 15 15 13 11 12 15 15 16 19 21
41 40 39 34 30 29 28 24 20 18 18 17 18 17 17 16 15 14 14 14 20 19 18 19 18 19 19 19 18 17 14 13 18 18 15 13 13 11 12 13 16 18 18
40 42 39 34 31 30 27 22 18 17 17 18 18 18 19 16 16 15 15 14 20 22 19 19 20 18 17 17 16 13 10 9 17 24 21 16 13 11 10 10 12 15 18
42 43 38 35 33 30 26 22 18 18 18 19 19 19 19 18 18 17 18 19 22 23 21 21 20 18 17 15 13 11 12 15 16 19 18 18 16 13 11 10 11 14 18
43 43 38 34 33 30 26 23 18 18 19 20 20 20 19 21 22 20 21 20 22 25 26 25 22 21 20 16 13 13 17 21 18 20 18 15 11 11 12 11 12 14 16
46 43 38 34 33 31 28 23 19 18 21 22 21 20 19 23 26 23 20 21 22 24 26 26 23 22 21 19 16 14 15 17 18 18 21 17 4 9 10 14 16 15 17
45 43 38 36 35 32 27 23 18 18 23 23 21 19 23 25 25 26 23 20 21 21 24 23 21 21 21 19 16 14 10 17 14 10 14 17 8 3 9 11 12 15 16
44 41 37 37 35 31 26 22 17 18 22 24 25 28 29 28 24 21 22 21 20 20 19 19 18 19 19 18 17 13 9 8 8 14 19 17 1 2 4 10 13 16 17
44 41 37 37 35 30 27 22 18 17 23 24 27 29 30 26 23 20 20 19 19 20 19 19 17 19 19 14 11 6 7 2 5 14 24 10 6 12 5 7 9 12 16
47 43 39 36 33 31 27 24 20 19 24 26 25 26 25 24 24 24 22 21 21 21 19 18 17 19 18 11 4 3 6 5 7 11 20 5 6 10 11 11 13 12 15
50 46 41 37 34 32 29 25 23 22 24 25 23 22 20 21 22 24 25 24 22 20 19 16 13 15 12 7 4 0 3 2 6 10 15 2 5 10 9 11 16 18 17
41 46 43 39 36 32 30 28 27 25 26 27 23 26 23 20 18 21 22 22 18 15 12 15 7 6 5 3 5 4 1 3 6 11 16 7 5 6 9 8 11 15 16
37 39 43 42 39 35 33 31 28 28 28 29 25 24 24 18 13 17 21 18 18 19 21 19 15 12 9 9 10 9 7 6 5 11 15 12 3 6 9 11 11 10 13
41 38 38 45 42 38 37 35 34 28 30 29 29 26 24 21 21 17 18 15 20 17 18 20 15 18 20 12 12 8 8 7 1 7 11 9 10 4 7 11 12 12 15
44 43 41 39 41 41 40 40 37 29 28 33 32 29 26 25 21 23 21 20 20 21 17 18 18 13 20 20 15 14 12 8 6 5 5 10 8 8 5 2 8 13 17
51 47 47 41 41 42 40 42 42 33 31 35 32 33 29 30 27 23 22 21 21 24 20 20 19 20 20 25 24 23 21 18 15 14 12 6 4 3 5 5 2 5 9
57 58 53 52 50 46 44 41 46 41 39 38 37 34 35 33 34 31 29 23 22 29 29 24 22 25 26 26 29 26 26 25 25 22 22 19 13 8 6 6 6 7 6
55 57 61 62 60 56 51 49 50 47 47 43 42 41 40 39 37 36 29 24 27 28 34 26 28 25 26 25 28 29 33 33 30 32 29 29 26 19 15 13 10 10 12
59 61 61 65 64 60 61 60 59 57 55 53 49 46 46 45 40 40 36 29 31 32 37 35 36 32 32 32 36 37 38 38 36 37 36 34 32 30 24 18 14 11 12
71 71 71 71 71 71 72 70 67 66 63 61 59 55 51 50 45 43 43 37 35 39 38 41 37 38 39 40 43 45 45 42 45 47 43 38 37 35 34 28 23 19 21
79 76 74 73 73 76 76 74 76 69 69 66 63 59 57 56 53 48 47 45 45 45 46 40 42 49 46 45 43 47 40 38 39 44 45 42 41 44 45 41 37 33 30
86 83 80 76 74 72 75 81 83 81 77 72 66 62 64 63 59 56 54 52 52 54 52 41 44 45 49 41 37 25 13 10 18 28 34 38 43 49 48 47 47 44 44
83 90 87 87 84 81 83 84 84 85 83 77 70 64 64 66 65 62 63 62 66 62 56 45 48 56 58 65 64 58 57 44 22 20 22 26 19 22 29 38 38 35 37
72 87 92 90 93 91 91 92 91 89 87 82 76 73 70 71 74 70 71 69 71 68 70 63 51 46 46 50 65 65 53 58 44 30 30 24 22 21 24 23 22 23 24
47 52 66 74 81 85 88 90 92 88 86 81 74 70 62 55 52 67 76 76 78 76 71 59 70 54 64 66 74 59 67 60 54 48 35 35 30 20 18 16 18 21 26
Wind_Direction_850mb
167 162 156 150 148 146 147 138 128 119 114 106 101 89 81 85 100 115 135 155 149 155 155 157 152 144 141 140 135 116 108 100 96 105 105 110 108 97 89 97 109 118 125
156 156 152 148 148 149 145 136 127 118 118 113 106 98 87 79 74 87 102 131 142 142 156 159 149 143 137 128 119 109 102 93 92 109 117 116 112 94 96 103 107 118 129
156 154 152 148 151 149 144 136 124 121 120 112 102 94 86 82 83 94 105 115 145 140 135 146 144 139 135 126 115 108 100 94 83 88 98 112 117 97 89 103 111 116 129
157 155 151 150 152 150 147 137 129 125 112 102 94 87 83 85 88 92 100 115 144 146 139 139 142 142 131 123 116 105 88 111 97 77 73 79 85 95 98 106 115 120 124
162 156 153 154 156 153 148 143 134 119 111 106 100 94 89 92 96 98 98 109 133 144 137 135 134 132 129 132 123 113 109 100 95 70 63 63 67 83 104 124 135 140 145
165 157 156 159 158 156 153 149 133 125 117 110 102 93 94 98 99 105 103 108 123 136 138 136 134 133 138 138 112 103 108 100 71 66 54 66 84 101 114 135 150 159 156
167 159 161 161 162 161 161 147 138 128 116 108 98 90 95 104 103 100 106 111 119 130 135 138 135 132 135 130 117 106 112 109 83 54 43 31 92 135 158 158 163 158 161
169 163 164 166 168 166 161 144 142 127 118 119 104 95 99 106 112 107 107 116 121 132 137 141 140 140 141 126 115 109 124 134 114 67 32 18 6 171 169 175 170 166 161
173 168 170 171 172 171 159 153 146 134 131 129 108 101 103 103 104 113 113 117 128 134 139 140 145 147 145 121 107 101 104 97 61 23 4 349 53 108 179 175 174 174 170
176 175 175 178 178 173 165 162 160 149 146 143 122 110 105 98 95 113 118 114 119 127 137 138 143 142 147 132 110 76 39 72 67 9 354 349 179 135 139 179 184 176 175
182 181 182 186 182 179 174 173 174 165 161 156 146 125 118 108 106 112 114 111 111 118 129 139 147 143 143 140 125 26 65 92 29 356 350 37 140 142 142 154 163 176 184
185 185 189 190 188 188 184 186 186 183 179 169 164 148 143 134 123 126 125 121 117 122 131 136 139 137 142 166 219 106 55 41 353 356 13 58 145 147 151 157 161 170 180
185 190 194 195 194 196 195 197 198 194 191 180 175 175 162 155 147 152 143 147 147 145 150 156 173 202 203 196 248 255 40 43 38 28 26 44 142 138 160 165 171 172 178
182 189 198 200 201 202 201 204 207 204 200 194 191 186 185 180 169 178 181 177 181 187 190 192 201 224 232 280 260 244 262 330 43 33 19 27 57 190 177 177 180 180 183
191 186 196 203 205 207 208 208 207 208 211 205 204 207 199 204 198 191 185 199 211 213 213 220 231 234 227 248 226 242 284 322 24 34 24 24 34 60 217 220 215 200 195
201 200 196 199 206 210 216 216 211 213 212 209 208 212 211 203 197 210 213 223 225 227 234 238 237 234 233 227 233 253 271 302 283 289 5 36 44 52 57 220 224 215 213
212 210 209 205 206 213 218 219 215 218 217 211 213 212 215 212 214 219 227 232 231 229 236 247 247 241 239 237 244 252 260 271 271 276 285 312 1 29 20 11 58 199 222
224 224 219 217 218 218 220 222 223 225 224 221 220 219 223 223 224 229 233 242 238 242 238 241 252 248 252 250 249 258 266 283 269 269 266 265 269 277 283 309 280 231 215
227 229 229 226 228 227 227 225 226 232 233 231 231 231 230 231 229 231 234 243 241 246 232 245 243 251 252 257 254 259 269 270 265 264 267 263 261 268 271 278 292 251 244
231 235 238 236 236 237 235 232 230 232 237 237 236 240 241 241 243 244 243 245 243 246 237 241 245 250 255 257 259 262 261 263 261 261 267 257 257 259 266 263 266 249 237
236 238 239 240 239 239 239 238 239 241 243 242 242 243 241 242 246 247 248 243 247 247 247 249 249 241 252 259 260 260 257 259 264 264 264 241 247 249 253 259 258 253 242
243 244 242 242 243 242 244 246 245 250 251 251 253 254 252 250 247 252 249 247 245 250 248 253 262 256 243 251 253 258 274 275 266 255 255 252 247 246 246 248 250 250 247
247 249 251 251 248 248 250 248 247 248 251 252 255 258 257 254 255 257 254 252 252 253 251 257 270 269 265 254 262 261 277 265 290 256 249 253 257 255 245 246 247 250 254
252 250 250 251 255 255 252 251 254 258 257 262 266 269 270 264 262 265 262 257 255 258 259 258 268 263 264 262 248 246 246 256 271 283 261 256 260 268 251 245 255 258 260
267 261 258 257 255 255 255 254 251 254 256 258 261 264 268 266 263 262 261 258 257 255 260 269 282 266 275 280 262 237 248 247 241 251 274 263 264 255 243 245 249 249 252
276 272 268 267 265 261 256 253 251 249 247 249 251 255 261 271 277 267 264 263 262 260 260 281 269 280 279 273 275 247 239 238 232 239 251 274 260 229 235 233 243 261 272